Regional Weather Roundup
Issued by NWS Boston, MA

Current Version | Previous Version | Text Only | Print | Product List | Glossary Off
Versions: 1 2 3 4 5 6 7 8 9 10 11 12 13 14 15 16 17 18 19 20 21 22 23 24 25 26 27

000
ASUS41 KBOX 181910
RWRBOX

REGIONAL WEATHER ROUNDUP
NATIONAL WEATHER SERVICE TAUNTON MA
300 PM EDT MON SEP 18 2017

NOTE:  "FAIR" INDICATES FEW OR NO CLOUDS BELOW 12,000 FEET WITH NO
SIGNIFICANT WEATHER AND/OR OBSTRUCTIONS TO VISIBILITY.

MAZALL-182000-
EASTERN MASSACHUSETTS

CITY           SKY/WX    TMP DP  RH WIND       PRES   REMARKS
BOSTON         CLOUDY    66  65  96 E9        30.17F FOG
BEVERLY        CLOUDY    70  66  87 NE5       30.16F
LAWRENCE       CLOUDY    73  65  75 NE8       30.18F
BEDFORD        CLOUDY    70  63  78 E9        30.15S
BLUE HILL        N/A     66  64  93 E9        30.17S
NORWOOD        CLOUDY    71  66  84 NE8       30.15F
MARSHFIELD     CLOUDY    68  66  94 NE6       30.16S
PLYMOUTH       CLOUDY    69  65  86 NE9       30.15F
TAUNTON        CLOUDY    69  65  86 VRB6      30.14F
NEW BEDFORD    CLOUDY    71  66  84 NE8       30.13S
$$

MAZALL-182000-
CAPE COD AND THE ISLANDS

CITY           SKY/WX    TMP DP  RH WIND       PRES   REMARKS
FALMOUTH       CLOUDY    70  66  88 NE10      30.15S
HYANNIS        CLOUDY    72  68  87 NE8       30.13S
CHATHAM        CLOUDY    68  66  93 NE8       30.15F
PROVINCETOWN   CLOUDY    67  65  93 NE9       30.16F
NANTUCKET      CLOUDY    68  67  96 NE14      30.12F FOG
MARTHAS VNYRD  CLOUDY    71  67  87 E13       30.12F
$$

MAZALL-182000-
CENTRAL AND WESTERN MASSACHUSETTS

CITY           SKY/WX    TMP DP  RH WIND       PRES   REMARKS
WORCESTER      CLOUDY    69  61  75 VRB7      30.17F
FITCHBURG      CLOUDY    72  64  76 E5        30.17F
ORANGE         CLOUDY    71  62  73 SE7       30.16S
SPRINGFIELD    NOT AVBL
WESTFIELD      CLOUDY    73  64  73 NE5       30.14F
NORTH ADAMS    SUNNY     79  62  56 SE9       30.11F
PITTSFIELD     MOSUNNY   76  62  62 SE12      30.13S
$$

RIZALL-182000-
RHODE ISLAND

CITY           SKY/WX    TMP DP  RH WIND       PRES   REMARKS
PROVIDENCE     CLOUDY    72  67  84 NE10      30.14F
NEWPORT        CLOUDY    71  68  90 E7        30.13S
BLOCK ISLAND   CLOUDY    69  66  90 NE10      30.13S
SMITHFIELD     CLOUDY    69  65  86 E7        30.16S
WESTERLY       CLOUDY    72  68  87 E8        30.13S
$$

CTZALL-182000-
CONNECTICUT

CITY           SKY/WX    TMP DP  RH WIND       PRES   REMARKS
BRADLEY INTL   PTSUNNY   74  64  71 NE6       30.13F
HARTFORD       CLOUDY    75  64  68 NE7       30.11F
BRIDGEPORT     PTSUNNY   75  67  76 E14       30.10S
DANBURY        PTSUNNY   75  64  68 E7        30.12F
GROTON         CLOUDY    72  67  84 E8        30.11S
NEW HAVEN      CLOUDY    77  65  66 E10       30.10F
CHESTER        CLOUDY    73  66  78 NE6       30.13F
MERIDEN        CLOUDY    76  64  66 VRB5      30.11F
WILLIMANTIC    CLOUDY    74  65  73 E7        30.13F
OXFORD         CLOUDY    74  64  71 NE9       30.13F
$$

MEZ002-015-021-024-NHZ003-005-008-011-012-014-VTZ005-008-182000-
NORTHERN NEW ENGLAND

CITY           SKY/WX    TMP DP  RH WIND       PRES   REMARKS
PORTLAND ME    CLOUDY    67  62  84 E3        30.19S
BANGOR ME      CLOUDY    66  61  84 S6        30.20F
CONCORD NH     CLOUDY    73  64  73 SE7       30.17F
MANCHESTER NH  CLOUDY    71  63  75 E7        30.15F
NASHUA NH      CLOUDY    72  65  78 VRB6      30.17F
PORTSMOUTH NH  NOT AVBL
JAFFREY NH     CLOUDY    70  63  78 CALM      30.18F
KEENE NH       SUNNY     79  63  57 S10       30.14F
BURLINGTON VT  PTSUNNY   85  66  53 SW6       30.08F
MT. WASHINGTON FOG       55  55 100 SE5         N/A  VSB 1/8
$$

NYZ052-076-182000-
EASTERN NEW YORK

CITY           SKY/WX    TMP DP  RH WIND       PRES   REMARKS
ALBANY         MOSUNNY   83  64  52 SE3       30.09F
NEW YORK CITY  CLOUDY    72  67  84 NE13      30.10S
$$

ANZALL-182000-
MARINE OBSERVATIONS

STATION/POSITION TIME  TEMP    WIND        PRES    VSBY  WAVE
                       AIR SEA DIR/SP/G                  HT/PER
                 (UTC) (F)     (DEG/KT/KT) (MB)    (MI)  (FT/S)
BOSTON BUOY      1850   65 65   70/  8/ 10 1021.4F         2/13
BUZZARDS BAY     1900   68      40/ 12/ 13 1020.4F
NANTUCKET SOUND  1850   64 67   50/ 12/ 14 1020.2F         1/14
MASS BAY-STELLWA 1804   65 65   80/  8/ 10 1021.1F         3/16
ISLE OF SHOALS   1900   64     100/  6/  6 1021.6F
S OF BLOCK IS    NOT AVBL
$$

......................KEY.........................
  SKY/WX - SKY CONDITION/PRESENT WEATHER
  TMP    - TEMPERATURE IN FAHRENHEIT
  DWPT   - DEWPOINT IN FAHRENHEIT
  RH     - RELATIVE HUMIDITY IN PERCENT
  WIND   - DIRECTION AND SPEED IN MPH
  PRES   - MEAN SEA LEVEL PRESSURE IN INCHES OF HG
  WCI    - WIND CHILL INDEX
  VSB    - VISIBILITY IN MILES
  HX     - HEAT INDEX
  TC     - TEMPERATURE IN CELSIUS
  VRB    - VARIABLE WIND DIRECTION
  N/A    - NOT AVAILABLE




USA.gov is the U.S. government's official web portal to all federal, state and local government web resources and services.